Regional Weather Roundup
Issued by NWS State College, PA

Home | Current Version | Previous Version | Graphics & Text | Print | Product List | Glossary Off
Versions: 1 2 3 4 5 6 7 8 9 10 11 12 13 14 15 16 17 18 19 20 21 22 23 24 25 26 27 28 29 30 31 32 33 34 35 36 37 38 39 40 41 42 43 44 45 46 47 48 49 50

000
ASUS41 KCTP 062003
RWRCTP

REGIONAL WEATHER ROUNDUP
NATIONAL WEATHER SERVICE STATE COLLEGE PA
400 PM EDT MON JUL 06 2015

Note: "fair" indicates few or no clouds below 12,000 feet with no
significant weather and/or obstructions to visibility.

* = STATION THAT DOES NOT REPORT PRECIPITATION /E.G. RAIN...SNOW...ETC/
    THUNDER OR FOG.

PAZ002>004-007>009-013>016-020>023-029>032-062100-
WESTERN PENNSYLVANIA

CITY           SKY/WX    TMP DP  RH WIND       PRES   REMARKS
ERIE           MOSUNNY   76  63  64 NW5       30.04R
MEADVILLE      PTSUNNY   77  66  68 VRB6      30.06R
FRANKLIN*      CLOUDY    72  66  83 SE13      30.07F
NEW CASTLE     FAIR      80  71  74 CALM      30.05S
BEAVER COUNTY  MOSUNNY   77  68  73 E3        30.05F
BUTLER*        PTSUNNY   79  70  73 E9        30.06F
PITTSBURGH INT PTSUNNY   79  66  64 SE6       30.04F
PITTSBURGH     PTSUNNY   77  64  64 SE5       30.04F
INDIANA*       PTSUNNY   75  72  88 E7        30.11F
LATROBE        PTSUNNY   72  72 100 CALM      30.07F
WASHINGTON CO* NOT AVBL
$$

PAZ004>006-010>012-017>019-024>028-033>037-041-042-045-046-049>053-062100-
CENTRAL PENNSYLVANIA

CITY           SKY/WX    TMP DP  RH WIND       PRES   REMARKS
BRADFORD       PTSUNNY   73  67  81 SE8       30.11F
DUBOIS         LGT RAIN  71  67  87 CALM      30.10F FOG
CLEARFIELD     LGT RAIN  75  66  73 S7        30.10F
JOHNSTOWN      PTSUNNY   72  66  81 SE7       30.11S
ALTOONA        PTSUNNY   74  68  81 E6        30.09F
STATE COLLEGE  PTSUNNY   77  68  73 CALM      30.09F
WILLIAMSPORT   PTSUNNY   81  70  69 E6        30.07F
SELINSGROVE    PTSUNNY   83  69  62 SE6       30.08F
FT INDIANTOWN  PTSUNNY   82  70  66 SE6       30.07F
CAPITAL CITY   PTSUNNY   81  69  67 E7        30.06F
HARRISBURG     PTSUNNY   81  70  69 SE6       30.05F
YORK           CLOUDY    82  71  69 SE12      30.07S
$$

PAZ038>040-043-044-047-048-054-055-060>062-067>071-062100-
EASTERN PENNSYLVANIA

CITY           SKY/WX    TMP DP  RH WIND       PRES   REMARKS
SCRANTON       PTSUNNY   83  64  52 S9        30.10F
MOUNT POCONO   CLOUDY    76  63  64 SE9       30.17F
ALLENTOWN      LGT RAIN  82  68  62 SE7       30.10F
QUAKERTOWN*    MOCLDY    82  72  69 E5        30.11F
READING        PTSUNNY   85  69  58 SE5       30.07F
LANCASTER      PTSUNNY   81  70  69 SE9       30.07F
COATESVILLE    MOCLDY    81  73  78 SE3       30.10F
POTTSTOWN      CLOUDY    83  70  64 VRB5      30.10F
BLUE BELL      MOSUNNY   86  72  62 S5        30.08F
DOYLESTOWN     PTSUNNY   81  70  69 SE7       30.09F
WILLOW GROVE   NOT AVBL
NORTH PHILA    MOSUNNY   85  69  58 VRB3      30.10F
PHILADELPHIA   PTSUNNY   86  70  58 S8        30.08F
$$


USA.gov is the U.S. government's official web portal to all federal, state and local government web resources and services.